Year,Month,Day,Hour,Minute,Value (Times are PST for temperature in C)
2023,04,29,09,24,15.20
2023,04,29,09,25,15.30
2023,04,29,09,26,15.30
2023,04,29,09,27,15.40
2023,04,29,09,28,15.50
2023,04,29,09,29,15.60
2023,04,29,09,30,15.70
2023,04,29,09,31,15.80
2023,04,29,09,32,15.80
2023,04,29,09,33,15.90
2023,04,29,09,34,16.00
2023,04,29,09,35,16.00
2023,04,29,09,36,16.10
2023,04,29,09,37,16.10
2023,04,29,09,38,16.20
2023,04,29,09,39,16.30
2023,04,29,09,40,16.30
2023,04,29,09,41,16.40
2023,04,29,09,42,16.40
2023,04,29,09,43,16.40
2023,04,29,09,44,16.30
2023,04,29,09,45,16.30
2023,04,29,09,46,16.30
2023,04,29,09,47,16.20
2023,04,29,09,48,16.10
2023,04,29,09,49,16.10
2023,04,29,09,50,16.10
2023,04,29,09,51,16.10
2023,04,29,09,52,16.10
2023,04,29,09,53,16.20
2023,04,29,09,54,16.20
2023,04,29,09,55,16.20
2023,04,29,09,56,16.30
2023,04,29,09,57,16.30
2023,04,29,09,58,16.30
2023,04,29,09,59,16.40
2023,04,29,10,00,16.40
2023,04,29,10,01,16.50
2023,04,29,10,02,16.50
2023,04,29,10,03,16.50
2023,04,29,10,04,16.60
2023,04,29,10,05,16.60
2023,04,29,10,06,16.60
2023,04,29,10,07,16.60
2023,04,29,10,08,16.60
2023,04,29,10,09,16.60
2023,04,29,10,10,16.60
2023,04,29,10,11,16.60
2023,04,29,10,12,16.60
2023,04,29,10,13,16.70
2023,04,29,10,14,16.80
2023,04,29,10,15,16.80
2023,04,29,10,16,17.00
2023,04,29,10,17,17.00
2023,04,29,10,18,17.10
2023,04,29,10,19,17.10
2023,04,29,10,20,17.10
2023,04,29,10,21,17.20
2023,04,29,10,22,17.30
2023,04,29,10,23,17.40
2023,04,29,10,24,17.40
2023,04,29,10,25,17.50
2023,04,29,10,26,17.60
2023,04,29,10,27,17.60
2023,04,29,10,28,17.50
2023,04,29,10,29,17.40
2023,04,29,10,30,17.30
2023,04,29,10,31,17.20
2023,04,29,10,32,17.00
2023,04,29,10,33,16.90
2023,04,29,10,34,16.70
2023,04,29,10,35,16.60
2023,04,29,10,36,16.40
2023,04,29,10,37,16.40
2023,04,29,10,38,16.30
2023,04,29,10,39,16.30
2023,04,29,10,40,16.30
2023,04,29,10,41,16.20
2023,04,29,10,42,16.10
2023,04,29,10,43,16.10
2023,04,29,10,44,16.00
2023,04,29,10,45,16.00
2023,04,29,10,46,16.00
2023,04,29,10,47,16.00
2023,04,29,10,48,16.10
2023,04,29,10,49,16.10
2023,04,29,10,50,16.10
2023,04,29,10,51,16.10
2023,04,29,10,52,16.20
2023,04,29,10,53,16.30
2023,04,29,10,54,16.30
2023,04,29,10,55,16.30
2023,04,29,10,56,16.30
2023,04,29,10,57,16.40
2023,04,29,10,58,16.50
2023,04,29,10,59,16.50
2023,04,29,11,00,16.60
2023,04,29,11,01,16.60
2023,04,29,11,02,16.60
2023,04,29,11,03,16.60
2023,04,29,11,04,16.60
2023,04,29,11,05,16.60
2023,04,29,11,06,16.60
2023,04,29,11,07,16.60
2023,04,29,11,08,16.70
2023,04,29,11,09,16.70
2023,04,29,11,10,16.70
2023,04,29,11,11,16.70
2023,04,29,11,12,16.70
2023,04,29,11,13,16.70
2023,04,29,11,14,16.70
2023,04,29,11,15,16.70
2023,04,29,11,16,16.70
2023,04,29,11,17,16.80
2023,04,29,11,18,16.80
2023,04,29,11,19,16.90
2023,04,29,11,20,17.00
2023,04,29,11,21,17.00
2023,04,29,11,22,17.10
2023,04,29,11,23,17.10
2023,04,29,11,24,17.20
2023,04,29,11,25,17.30
2023,04,29,11,26,17.40
2023,04,29,11,27,17.50
2023,04,29,11,28,17.70
2023,04,29,11,29,17.80
2023,04,29,11,30,17.90
2023,04,29,11,31,18.10
2023,04,29,11,32,18.20
2023,04,29,11,33,18.40
2023,04,29,11,34,18.50
2023,04,29,11,35,18.60
2023,04,29,11,36,18.70
2023,04,29,11,37,18.70
2023,04,29,11,38,18.80
2023,04,29,11,39,18.80
2023,04,29,11,40,18.80
2023,04,29,11,41,18.80
2023,04,29,11,42,18.70
2023,04,29,11,43,18.50
2023,04,29,11,44,18.40
2023,04,29,11,45,18.40
2023,04,29,11,46,18.40
2023,04,29,11,47,18.40
2023,04,29,11,48,18.50
2023,04,29,11,49,18.50
2023,04,29,11,50,18.60
2023,04,29,11,51,18.70
2023,04,29,11,52,18.70
2023,04,29,11,53,18.70
2023,04,29,11,54,18.70
2023,04,29,11,55,18.70
2023,04,29,11,56,18.70
2023,04,29,11,57,18.70
2023,04,29,11,58,18.60
2023,04,29,11,59,18.60
2023,04,29,12,00,18.50
2023,04,29,12,01,18.50
2023,04,29,12,02,18.50
2023,04,29,12,03,18.40
2023,04,29,12,04,18.50
2023,04,29,12,05,18.50
2023,04,29,12,06,18.50
2023,04,29,12,07,18.50
2023,04,29,12,08,18.60
2023,04,29,12,09,18.60
2023,04,29,12,10,18.60
2023,04,29,12,11,18.60
2023,04,29,12,12,18.60
2023,04,29,12,13,18.70
2023,04,29,12,14,18.80
2023,04,29,12,15,18.80
2023,04,29,12,16,18.90
2023,04,29,12,17,18.90
2023,04,29,12,18,19.00
2023,04,29,12,19,19.10
2023,04,29,12,20,19.10
2023,04,29,12,21,19.20
2023,04,29,12,22,19.20
2023,04,29,12,23,19.30
2023,04,29,12,24,19.40
2023,04,29,12,25,19.40
2023,04,29,12,26,19.50
2023,04,29,12,27,19.50
2023,04,29,12,28,19.60
2023,04,29,12,29,19.70
2023,04,29,12,30,19.70
2023,04,29,12,31,19.80
2023,04,29,12,32,19.90
2023,04,29,12,33,19.90
2023,04,29,12,34,19.90
2023,04,29,12,35,19.80
2023,04,29,12,36,19.80
2023,04,29,12,37,19.70
2023,04,29,12,38,19.70
2023,04,29,12,39,19.80
2023,04,29,12,40,19.80
2023,04,29,12,41,19.90
2023,04,29,12,42,20.00
2023,04,29,12,43,20.00
2023,04,29,12,44,20.00
2023,04,29,12,45,20.00
2023,04,29,12,46,20.00
2023,04,29,12,47,20.00
2023,04,29,12,48,20.10
2023,04,29,12,49,20.00
2023,04,29,12,50,20.00
2023,04,29,12,51,20.00
2023,04,29,12,52,20.10
2023,04,29,12,53,20.10
2023,04,29,12,54,20.30
2023,04,29,12,55,20.30
2023,04,29,12,56,20.30
2023,04,29,12,57,20.30
2023,04,29,12,58,20.30
2023,04,29,12,59,20.20
2023,04,29,13,00,20.10
2023,04,29,13,01,20.10
2023,04,29,13,02,20.10
2023,04,29,13,03,20.20
2023,04,29,13,04,20.40
2023,04,29,13,05,20.50
2023,04,29,13,06,20.70
2023,04,29,13,07,20.80
2023,04,29,13,08,20.80
2023,04,29,13,09,20.80
2023,04,29,13,10,20.80
2023,04,29,13,11,20.80
2023,04,29,13,12,20.70
2023,04,29,13,13,20.60
2023,04,29,13,14,20.60
2023,04,29,13,15,20.60
2023,04,29,13,16,20.70
2023,04,29,13,17,20.80
2023,04,29,13,18,20.90
2023,04,29,13,19,21.00
2023,04,29,13,20,21.20
2023,04,29,13,21,21.30
2023,04,29,13,22,21.40
2023,04,29,13,23,21.50
2023,04,29,13,24,21.60
2023,04,29,13,25,21.70
2023,04,29,13,26,21.70
2023,04,29,13,27,21.80
2023,04,29,13,28,21.80
2023,04,29,13,29,21.90
2023,04,29,13,30,22.00
2023,04,29,13,31,22.00
2023,04,29,13,32,22.10
2023,04,29,13,33,22.10
2023,04,29,13,34,22.20
2023,04,29,13,35,22.20
2023,04,29,13,36,22.20
2023,04,29,13,37,22.30
2023,04,29,13,38,22.40
2023,04,29,13,39,22.40
2023,04,29,13,40,22.50
2023,04,29,13,41,22.50
2023,04,29,13,42,22.60
2023,04,29,13,43,22.50
2023,04,29,13,44,22.50
2023,04,29,13,45,22.50
2023,04,29,13,46,22.50
2023,04,29,13,47,22.50
2023,04,29,13,48,22.50
2023,04,29,13,49,22.60
2023,04,29,13,50,22.70
2023,04,29,13,51,22.80
2023,04,29,13,52,22.80
2023,04,29,13,53,22.70
2023,04,29,13,54,22.80
2023,04,29,13,55,22.80
2023,04,29,13,56,22.90
2023,04,29,13,57,22.90
2023,04,29,13,58,22.90
2023,04,29,13,59,22.90
2023,04,29,14,00,22.90
2023,04,29,14,01,22.90
2023,04,29,14,02,22.90
2023,04,29,14,03,22.90
2023,04,29,14,04,22.90
2023,04,29,14,05,22.90
2023,04,29,14,06,22.90
2023,04,29,14,07,22.90
2023,04,29,14,08,22.80
2023,04,29,14,09,22.80
2023,04,29,14,10,22.80
2023,04,29,14,11,22.80
2023,04,29,14,12,22.80
2023,04,29,14,13,22.80
2023,04,29,14,14,22.80
2023,04,29,14,15,22.80
2023,04,29,14,16,22.70
2023,04,29,14,17,22.70
2023,04,29,14,18,22.70
2023,04,29,14,19,22.70
2023,04,29,14,20,22.60
2023,04,29,14,21,22.70
2023,04,29,14,22,22.60
2023,04,29,14,23,22.60
2023,04,29,14,24,22.60
2023,04,29,14,25,22.60
2023,04,29,14,26,22.60
2023,04,29,14,27,22.70
2023,04,29,14,28,22.70
2023,04,29,14,29,22.80
2023,04,29,14,30,22.80
2023,04,29,14,31,22.80
2023,04,29,14,32,22.90
2023,04,29,14,33,22.80
2023,04,29,14,34,22.80
2023,04,29,14,35,22.80
2023,04,29,14,36,22.90
2023,04,29,14,37,22.90
2023,04,29,14,38,23.00
2023,04,29,14,39,23.00
2023,04,29,14,40,23.00
2023,04,29,14,41,23.00
2023,04,29,14,42,23.00
2023,04,29,14,43,23.00
2023,04,29,14,44,23.00
2023,04,29,14,45,23.10
2023,04,29,14,46,23.10
2023,04,29,14,47,23.10
2023,04,29,14,48,23.20
2023,04,29,14,49,23.20
2023,04,29,14,50,23.20
2023,04,29,14,51,23.30
2023,04,29,14,52,23.30
2023,04,29,14,53,23.30
2023,04,29,14,54,23.30
2023,04,29,14,55,23.30
2023,04,29,14,56,23.30
2023,04,29,14,57,23.20
2023,04,29,14,58,23.10
2023,04,29,14,59,22.90
2023,04,29,15,00,22.90
2023,04,29,15,01,22.80
2023,04,29,15,02,22.80
2023,04,29,15,03,22.80
2023,04,29,15,04,22.70
2023,04,29,15,05,22.60
2023,04,29,15,06,22.60
2023,04,29,15,07,22.50
2023,04,29,15,08,22.50
2023,04,29,15,09,22.50
2023,04,29,15,10,22.40
2023,04,29,15,11,22.40
2023,04,29,15,12,22.30
2023,04,29,15,13,22.30
2023,04,29,15,14,22.30
2023,04,29,15,15,22.30
2023,04,29,15,16,22.30
2023,04,29,15,17,22.30
2023,04,29,15,18,22.30
2023,04,29,15,19,22.30
2023,04,29,15,20,22.40
2023,04,29,15,21,22.40
2023,04,29,15,22,22.50
2023,04,29,15,23,22.50
2023,04,29,15,24,22.60
2023,04,29,15,25,22.60
2023,04,29,15,26,22.60
2023,04,29,15,27,22.70
2023,04,29,15,28,22.70
2023,04,29,15,29,22.70
2023,04,29,15,30,22.70
2023,04,29,15,31,22.80
2023,04,29,15,32,22.90
2023,04,29,15,33,23.10
2023,04,29,15,34,23.20
2023,04,29,15,35,23.30
2023,04,29,15,36,23.40
2023,04,29,15,37,23.50
2023,04,29,15,38,23.50
2023,04,29,15,39,23.50
2023,04,29,15,40,23.50
2023,04,29,15,41,23.50
2023,04,29,15,42,23.50
2023,04,29,15,43,23.40
2023,04,29,15,44,23.30
2023,04,29,15,45,23.20
2023,04,29,15,46,23.10
2023,04,29,15,47,23.00
2023,04,29,15,48,22.90
2023,04,29,15,49,22.80
2023,04,29,15,50,22.80
2023,04,29,15,51,22.70
2023,04,29,15,52,22.70
2023,04,29,15,53,22.60
2023,04,29,15,54,22.60
2023,04,29,15,55,22.60
2023,04,29,15,56,22.60
2023,04,29,15,57,22.60
2023,04,29,15,58,22.60
2023,04,29,15,59,22.60
2023,04,29,16,00,22.60
2023,04,29,16,01,22.50
2023,04,29,16,02,22.50
2023,04,29,16,03,22.50
2023,04,29,16,04,22.50
2023,04,29,16,05,22.60
2023,04,29,16,06,22.60
2023,04,29,16,07,22.60
2023,04,29,16,08,22.70
2023,04,29,16,09,22.70
2023,04,29,16,10,22.70
2023,04,29,16,11,22.70
2023,04,29,16,12,22.70
2023,04,29,16,13,22.80
2023,04,29,16,14,22.80
2023,04,29,16,15,22.80
2023,04,29,16,16,22.80
2023,04,29,16,17,22.80
2023,04,29,16,18,22.70
2023,04,29,16,19,22.70
2023,04,29,16,20,22.60
2023,04,29,16,21,22.60
2023,04,29,16,22,22.60
2023,04,29,16,23,22.60
2023,04,29,16,24,22.60
2023,04,29,16,25,22.60
2023,04,29,16,26,22.50
2023,04,29,16,27,22.50
2023,04,29,16,28,22.40
2023,04,29,16,29,22.40
2023,04,29,16,30,22.50
2023,04,29,16,31,22.50
2023,04,29,16,32,22.50
2023,04,29,16,33,22.50
2023,04,29,16,34,22.40
2023,04,29,16,35,22.40
2023,04,29,16,36,22.40
2023,04,29,16,37,22.40
2023,04,29,16,38,22.40
2023,04,29,16,39,22.40
2023,04,29,16,40,22.40
2023,04,29,16,41,22.40
2023,04,29,16,42,22.40
2023,04,29,16,43,22.50
2023,04,29,16,44,22.60
2023,04,29,16,45,22.70
2023,04,29,16,46,22.80
2023,04,29,16,47,22.80
2023,04,29,16,48,22.80
2023,04,29,16,49,22.70
2023,04,29,16,50,22.70
2023,04,29,16,51,22.60
2023,04,29,16,52,22.60
2023,04,29,16,53,22.60
2023,04,29,16,54,22.60
2023,04,29,16,55,22.70
2023,04,29,16,56,22.70
2023,04,29,16,57,22.70
2023,04,29,16,58,22.80
2023,04,29,16,59,22.80
2023,04,29,17,00,22.80
2023,04,29,17,01,22.80
2023,04,29,17,02,22.80
2023,04,29,17,03,22.80
2023,04,29,17,04,22.80
2023,04,29,17,05,22.80
2023,04,29,17,06,22.80
2023,04,29,17,07,22.70
2023,04,29,17,08,22.70
2023,04,29,17,09,22.70
2023,04,29,17,10,22.70
2023,04,29,17,11,22.70
2023,04,29,17,12,22.70
2023,04,29,17,13,22.80
2023,04,29,17,14,22.80
2023,04,29,17,15,22.80
2023,04,29,17,16,22.80
2023,04,29,17,17,22.80
2023,04,29,17,18,22.70
2023,04,29,17,19,22.60
2023,04,29,17,20,22.50
2023,04,29,17,21,22.40
2023,04,29,17,22,22.40
2023,04,29,17,23,22.30
2023,04,29,17,24,22.30
2023,04,29,17,25,22.20
2023,04,29,17,26,22.10
2023,04,29,17,27,22.10
2023,04,29,17,28,22.10
2023,04,29,17,29,22.10
2023,04,29,17,30,22.00
2023,04,29,17,31,22.00
2023,04,29,17,32,22.00
2023,04,29,17,33,21.90
2023,04,29,17,34,21.90
2023,04,29,17,35,21.90
2023,04,29,17,36,21.90
2023,04,29,17,37,21.80
2023,04,29,17,38,21.80
2023,04,29,17,39,21.80
2023,04,29,17,40,21.80
2023,04,29,17,41,21.80
2023,04,29,17,42,21.80
2023,04,29,17,43,21.80
2023,04,29,17,44,21.80
2023,04,29,17,45,21.80
2023,04,29,17,46,21.80
2023,04,29,17,47,21.80
2023,04,29,17,48,21.80
2023,04,29,17,49,21.70
2023,04,29,17,50,21.70
2023,04,29,17,51,21.60
2023,04,29,17,52,21.60
2023,04,29,17,53,21.50
2023,04,29,17,54,21.30
2023,04,29,17,55,21.20
2023,04,29,17,56,21.20
2023,04,29,17,57,21.10
2023,04,29,17,58,21.00
2023,04,29,17,59,21.00
2023,04,29,18,00,21.00
2023,04,29,18,01,21.10
2023,04,29,18,02,21.10
2023,04,29,18,03,21.20
2023,04,29,18,04,21.20
2023,04,29,18,05,21.10
2023,04,29,18,06,21.10
2023,04,29,18,07,21.10
2023,04,29,18,08,21.00
2023,04,29,18,09,21.00
2023,04,29,18,10,20.80
2023,04,29,18,11,20.80
2023,04,29,18,12,20.70
2023,04,29,18,13,20.70
2023,04,29,18,14,20.70
2023,04,29,18,15,20.70
2023,04,29,18,16,20.70
2023,04,29,18,17,20.70
2023,04,29,18,18,20.70
2023,04,29,18,19,20.70
2023,04,29,18,20,20.70
2023,04,29,18,21,20.70
2023,04,29,18,22,20.70
2023,04,29,18,23,20.70
2023,04,29,18,24,20.70
2023,04,29,18,25,20.70
2023,04,29,18,26,20.60
2023,04,29,18,27,20.60
2023,04,29,18,28,20.60
2023,04,29,18,29,20.60
2023,04,29,18,30,20.60
2023,04,29,18,31,20.50
2023,04,29,18,32,20.50
2023,04,29,18,33,20.60
2023,04,29,18,34,20.60
2023,04,29,18,35,20.50
2023,04,29,18,36,20.50
2023,04,29,18,37,20.40
2023,04,29,18,38,20.40
2023,04,29,18,39,20.40
2023,04,29,18,40,20.30
2023,04,29,18,41,20.30
2023,04,29,18,42,20.30
2023,04,29,18,43,20.20
2023,04,29,18,44,20.20
2023,04,29,18,45,20.10
2023,04,29,18,46,20.10
2023,04,29,18,47,20.10
2023,04,29,18,48,20.10
2023,04,29,18,49,20.20
2023,04,29,18,50,20.20
2023,04,29,18,51,20.20
2023,04,29,18,52,20.20
2023,04,29,18,53,20.20
2023,04,29,18,54,20.10
2023,04,29,18,55,20.10
2023,04,29,18,56,20.00
2023,04,29,18,57,20.00
2023,04,29,18,58,19.90
2023,04,29,18,59,19.90
2023,04,29,19,00,19.80
2023,04,29,19,01,19.80
2023,04,29,19,02,19.80
2023,04,29,19,03,19.70
2023,04,29,19,04,19.70
2023,04,29,19,05,19.70
2023,04,29,19,06,19.70
2023,04,29,19,07,19.70
2023,04,29,19,08,19.70
2023,04,29,19,09,19.60
2023,04,29,19,10,19.60
2023,04,29,19,11,19.60
2023,04,29,19,12,19.60
2023,04,29,19,13,19.60
2023,04,29,19,14,19.60
2023,04,29,19,15,19.60
2023,04,29,19,16,19.60
2023,04,29,19,17,19.60
2023,04,29,19,18,19.60
2023,04,29,19,19,19.60
2023,04,29,19,20,19.60
2023,04,29,19,21,19.60
2023,04,29,19,22,19.70
2023,04,29,19,23,19.70
2023,04,29,19,24,19.70
2023,04,29,19,25,19.70
2023,04,29,19,26,19.70
2023,04,29,19,27,19.70
2023,04,29,19,28,19.70
2023,04,29,19,29,19.60
2023,04,29,19,30,19.60
2023,04,29,19,31,19.60
2023,04,29,19,32,19.60
2023,04,29,19,33,19.60
2023,04,29,19,34,19.60
2023,04,29,19,35,19.50
2023,04,29,19,36,19.50
2023,04,29,19,37,19.50
2023,04,29,19,38,19.50
2023,04,29,19,39,19.50
2023,04,29,19,40,19.50
2023,04,29,19,41,19.50
2023,04,29,19,42,19.50
2023,04,29,19,43,19.40
2023,04,29,19,44,19.40
2023,04,29,19,45,19.40
2023,04,29,19,46,19.40
2023,04,29,19,47,19.40
2023,04,29,19,48,19.40
2023,04,29,19,49,19.40
2023,04,29,19,50,19.40
2023,04,29,19,51,19.40
2023,04,29,19,52,19.40
2023,04,29,19,53,19.40
